Location: Bay Ridge
(40.6340°N, 74.0146°W)
Time: 01:42:35
(UTC+00:00)

Gbstr 26 Del rocket - Pass Details

Date: 15 November 2019
Orbit: 493 x 1264 km, 51.8° (Epoch: 06 December)

Event Time Altitude Azimuth Distance (km) Brightness Sun altitude
Exits shadow 09:24:55 39° 55° (NE) 777 3.9 -26.1°
Drops below altitude 10° 09:27:18 10° 54° (NE) 1,694 5.9 -25.6°
Sets 09:29:25 0° 54° (NE) 2,573 7.0 -25.2°
